Year,Month,Day,Hour,Minute,Value (Times are PST for temperature in C)
2013,03,30,00,00,5.80
2013,03,30,00,01,5.80
2013,03,30,00,02,5.80
2013,03,30,00,03,5.80
2013,03,30,00,04,5.80
2013,03,30,00,05,5.80
2013,03,30,00,06,5.80
2013,03,30,00,07,5.80
2013,03,30,00,08,5.80
2013,03,30,00,09,5.80
2013,03,30,00,10,5.80
2013,03,30,00,11,5.90
2013,03,30,00,12,5.90
2013,03,30,00,13,5.90
2013,03,30,00,14,5.80
2013,03,30,00,15,5.80
2013,03,30,00,16,5.80
2013,03,30,00,17,5.80
2013,03,30,00,18,5.80
2013,03,30,00,19,5.70
2013,03,30,00,20,5.70
2013,03,30,00,21,5.60
2013,03,30,00,22,5.60
2013,03,30,00,23,5.60
2013,03,30,00,24,5.60
2013,03,30,00,25,5.60
2013,03,30,00,26,5.60
2013,03,30,00,27,5.60
2013,03,30,00,28,5.50
2013,03,30,00,29,5.50
2013,03,30,00,30,5.50
2013,03,30,00,31,5.40
2013,03,30,00,32,5.40
2013,03,30,00,33,5.40
2013,03,30,00,34,5.30
2013,03,30,00,35,5.30
2013,03,30,00,36,5.40
2013,03,30,00,37,5.40
2013,03,30,00,38,5.40
2013,03,30,00,39,5.50
2013,03,30,00,40,5.50
2013,03,30,00,41,5.60
2013,03,30,00,42,5.60
2013,03,30,00,43,5.50
2013,03,30,00,44,5.50
2013,03,30,00,45,5.40
2013,03,30,00,46,5.40
2013,03,30,00,47,5.40
2013,03,30,00,48,5.30
2013,03,30,00,49,5.30
2013,03,30,00,50,5.30
2013,03,30,00,51,5.30
2013,03,30,00,52,5.20
2013,03,30,00,53,5.20
2013,03,30,00,54,5.20
2013,03,30,00,55,5.20
2013,03,30,00,56,5.20
2013,03,30,00,57,5.20
2013,03,30,00,58,5.20
2013,03,30,00,59,5.20
2013,03,30,01,00,5.20
2013,03,30,01,01,5.20
2013,03,30,01,02,5.20
2013,03,30,01,03,5.20
2013,03,30,01,04,5.20
2013,03,30,01,05,5.20
2013,03,30,01,06,5.30
2013,03,30,01,07,5.30
2013,03,30,01,08,5.30
2013,03,30,01,09,5.40
2013,03,30,01,10,5.40
2013,03,30,01,11,5.40
2013,03,30,01,12,5.40
2013,03,30,01,13,5.40
2013,03,30,01,14,5.30
2013,03,30,01,15,5.30
2013,03,30,01,16,5.20
2013,03,30,01,17,5.20
2013,03,30,01,18,5.10
2013,03,30,01,19,5.10
2013,03,30,01,20,5.10
2013,03,30,01,21,5.10
2013,03,30,01,22,5.10
2013,03,30,01,23,5.10
2013,03,30,01,24,5.20
2013,03,30,01,25,5.30
2013,03,30,01,26,5.40
2013,03,30,01,27,5.50
2013,03,30,01,28,5.60
2013,03,30,01,29,5.60
2013,03,30,01,30,5.60
2013,03,30,01,31,5.60
2013,03,30,01,32,5.60
2013,03,30,01,33,5.50
2013,03,30,01,34,5.50
2013,03,30,01,35,5.40
2013,03,30,01,36,5.30
2013,03,30,01,37,5.30
2013,03,30,01,38,5.20
2013,03,30,01,39,5.20
2013,03,30,01,40,5.20
2013,03,30,01,41,5.20
2013,03,30,01,42,5.20
2013,03,30,01,43,5.10
2013,03,30,01,44,5.10
2013,03,30,01,45,5.00
2013,03,30,01,46,5.00
2013,03,30,01,47,4.90
2013,03,30,01,48,4.90
2013,03,30,01,49,4.80
2013,03,30,01,50,4.80
2013,03,30,01,51,4.80
2013,03,30,01,52,4.70
2013,03,30,01,53,4.70
2013,03,30,01,54,4.70
2013,03,30,01,55,4.70
2013,03,30,01,56,4.80
2013,03,30,01,57,4.80
2013,03,30,01,58,4.90
2013,03,30,01,59,4.90
2013,03,30,02,00,5.00
2013,03,30,02,01,5.10
2013,03,30,02,02,5.10
2013,03,30,02,03,5.10
2013,03,30,02,04,5.10
2013,03,30,02,05,5.00
2013,03,30,02,06,5.00
2013,03,30,02,07,4.90
2013,03,30,02,08,4.90
2013,03,30,02,09,4.80
2013,03,30,02,10,4.80
2013,03,30,02,11,4.70
2013,03,30,02,12,4.70
2013,03,30,02,13,4.70
2013,03,30,02,14,4.70
2013,03,30,02,15,4.70
2013,03,30,02,16,4.70
2013,03,30,02,17,4.70
2013,03,30,02,18,4.80
2013,03,30,02,19,4.80
2013,03,30,02,20,4.80
2013,03,30,02,21,4.80
2013,03,30,02,22,4.70
2013,03,30,02,23,4.70
2013,03,30,02,24,4.70
2013,03,30,02,25,4.70
2013,03,30,02,26,4.60
2013,03,30,02,27,4.70
2013,03,30,02,28,4.70
2013,03,30,02,29,4.80
2013,03,30,02,30,4.90
2013,03,30,02,31,5.00
2013,03,30,02,32,5.10
2013,03,30,02,33,5.20
2013,03,30,02,34,5.20
2013,03,30,02,35,5.20
2013,03,30,02,36,5.30
2013,03,30,02,37,5.20
2013,03,30,02,38,5.20
2013,03,30,02,39,5.20
2013,03,30,02,40,5.20
2013,03,30,02,41,5.20
2013,03,30,02,42,5.20
2013,03,30,02,43,5.20
2013,03,30,02,44,5.20
2013,03,30,02,45,5.20
2013,03,30,02,46,5.20
2013,03,30,02,47,5.20
2013,03,30,02,48,5.20
2013,03,30,02,49,5.10
2013,03,30,02,50,5.10
2013,03,30,02,51,5.10
2013,03,30,02,52,5.00
2013,03,30,02,53,4.90
2013,03,30,02,54,4.90
2013,03,30,02,55,4.90
2013,03,30,02,56,4.80
2013,03,30,02,57,4.90
2013,03,30,02,58,5.00
2013,03,30,02,59,5.10
2013,03,30,03,00,5.30
2013,03,30,03,01,5.50
2013,03,30,03,02,5.60
2013,03,30,03,03,5.80
2013,03,30,03,04,5.90
2013,03,30,03,05,5.90
2013,03,30,03,06,5.80
2013,03,30,03,07,5.80
2013,03,30,03,08,5.70
2013,03,30,03,09,5.60
2013,03,30,03,10,5.50
2013,03,30,03,11,5.40
2013,03,30,03,12,5.30
2013,03,30,03,13,5.10
2013,03,30,03,14,5.00
2013,03,30,03,15,4.90
2013,03,30,03,16,4.80
2013,03,30,03,17,4.70
2013,03,30,03,18,4.70
2013,03,30,03,19,4.60
2013,03,30,03,20,4.60
2013,03,30,03,21,4.60
2013,03,30,03,22,4.70
2013,03,30,03,23,4.80
2013,03,30,03,24,4.90
2013,03,30,03,25,4.90
2013,03,30,03,26,5.00
2013,03,30,03,27,5.00
2013,03,30,03,28,5.10
2013,03,30,03,29,5.20
2013,03,30,03,30,5.30
2013,03,30,03,31,5.30
2013,03,30,03,32,5.30
2013,03,30,03,33,5.30
2013,03,30,03,34,5.30
2013,03,30,03,35,5.30
2013,03,30,03,36,5.20
2013,03,30,03,37,5.10
2013,03,30,03,38,5.10
2013,03,30,03,39,5.00
2013,03,30,03,40,4.90
2013,03,30,03,41,5.00
2013,03,30,03,42,5.00
2013,03,30,03,43,5.00
2013,03,30,03,44,5.10
2013,03,30,03,45,5.10
2013,03,30,03,46,5.10
2013,03,30,03,47,5.20
2013,03,30,03,48,5.30
2013,03,30,03,49,5.30
2013,03,30,03,50,5.40
2013,03,30,03,51,5.40
2013,03,30,03,52,5.50
2013,03,30,03,53,5.60
2013,03,30,03,54,5.80
2013,03,30,03,55,5.90
2013,03,30,03,56,6.00
2013,03,30,03,57,6.10
2013,03,30,03,58,6.10
2013,03,30,03,59,6.20
2013,03,30,04,00,6.20
2013,03,30,04,01,6.20
2013,03,30,04,02,6.10
2013,03,30,04,03,6.00
2013,03,30,04,04,5.90
2013,03,30,04,05,5.80
2013,03,30,04,06,5.70
2013,03,30,04,07,5.60
2013,03,30,04,08,5.60
2013,03,30,04,09,5.60
2013,03,30,04,10,5.60
2013,03,30,04,11,5.60
2013,03,30,04,12,5.50
2013,03,30,04,13,5.50
2013,03,30,04,14,5.40
2013,03,30,04,15,5.30
2013,03,30,04,16,5.30
2013,03,30,04,17,5.20
2013,03,30,04,18,5.20
2013,03,30,04,19,5.10
2013,03,30,04,20,5.10
2013,03,30,04,21,5.10
2013,03,30,04,22,5.10
2013,03,30,04,23,5.00
2013,03,30,04,24,4.90
2013,03,30,04,25,4.90
2013,03,30,04,26,4.90
2013,03,30,04,27,4.80
2013,03,30,04,28,4.80
2013,03,30,04,29,4.90
2013,03,30,04,30,4.90
2013,03,30,04,31,4.90
2013,03,30,04,32,4.90
2013,03,30,04,33,4.90
2013,03,30,04,34,4.90
2013,03,30,04,35,4.90
2013,03,30,04,36,4.90
2013,03,30,04,37,4.90
2013,03,30,04,38,4.90
2013,03,30,04,39,5.00
2013,03,30,04,40,5.00
2013,03,30,04,41,5.10
2013,03,30,04,42,5.20
2013,03,30,04,43,5.20
2013,03,30,04,44,5.20
2013,03,30,04,45,5.30
2013,03,30,04,46,5.30
2013,03,30,04,47,5.40
2013,03,30,04,48,5.40
2013,03,30,04,49,5.50
2013,03,30,04,50,5.50
2013,03,30,04,51,5.60
2013,03,30,04,52,5.50
2013,03,30,04,53,5.50
2013,03,30,04,54,5.40
2013,03,30,04,55,5.40
2013,03,30,04,56,5.30
2013,03,30,04,57,5.30
2013,03,30,04,58,5.30
2013,03,30,04,59,5.30
2013,03,30,05,00,5.20
2013,03,30,05,01,5.20
2013,03,30,05,02,5.10
2013,03,30,05,03,5.10
2013,03,30,05,04,5.00
2013,03,30,05,05,5.00
2013,03,30,05,06,5.00
2013,03,30,05,07,5.00
2013,03,30,05,08,5.00
2013,03,30,05,09,5.00
2013,03,30,05,10,4.90
2013,03,30,05,11,4.90
2013,03,30,05,12,4.80
2013,03,30,05,13,4.80
2013,03,30,05,14,4.70
2013,03,30,05,15,4.70
2013,03,30,05,16,4.70
2013,03,30,05,17,4.70
2013,03,30,05,18,4.60
2013,03,30,05,19,4.70
2013,03,30,05,20,4.70
2013,03,30,05,21,4.70
2013,03,30,05,22,4.80
2013,03,30,05,23,4.80
2013,03,30,05,24,5.00
2013,03,30,05,25,5.10
2013,03,30,05,26,5.10
2013,03,30,05,27,5.20
2013,03,30,05,28,5.20
2013,03,30,05,29,5.30
2013,03,30,05,30,5.30
2013,03,30,05,31,5.30
2013,03,30,05,32,5.20
2013,03,30,05,33,5.20
2013,03,30,05,34,5.20
2013,03,30,05,35,5.20
2013,03,30,05,36,5.20
2013,03,30,05,37,5.10
2013,03,30,05,38,5.10
2013,03,30,05,39,5.10
2013,03,30,05,40,5.10
2013,03,30,05,41,5.10
2013,03,30,05,42,5.10
2013,03,30,05,43,5.00
2013,03,30,05,44,5.00
2013,03,30,05,45,5.00
2013,03,30,05,46,4.90
2013,03,30,05,47,4.90
2013,03,30,05,48,4.90
2013,03,30,05,49,4.90
2013,03,30,05,50,4.90
2013,03,30,05,51,4.90
2013,03,30,05,52,4.90
2013,03,30,05,53,4.80
2013,03,30,05,54,4.80
2013,03,30,05,55,4.80
2013,03,30,05,56,4.80
2013,03,30,05,57,4.80
2013,03,30,05,58,4.80
2013,03,30,05,59,4.80
2013,03,30,06,00,4.80
2013,03,30,06,01,4.80
2013,03,30,06,02,4.90
2013,03,30,06,03,4.90
2013,03,30,06,04,4.90
2013,03,30,06,05,4.80
2013,03,30,06,06,4.80
2013,03,30,06,07,4.80
2013,03,30,06,08,4.80
2013,03,30,06,09,4.80
2013,03,30,06,10,4.80
2013,03,30,06,11,4.80
2013,03,30,06,12,4.80
2013,03,30,06,13,4.80
2013,03,30,06,14,4.80
2013,03,30,06,15,4.80
2013,03,30,06,16,4.80
2013,03,30,06,17,4.90
2013,03,30,06,18,4.90
2013,03,30,06,19,4.80
2013,03,30,06,20,4.80
2013,03,30,06,21,4.90
2013,03,30,06,22,4.90
2013,03,30,06,23,5.00
2013,03,30,06,24,5.00
2013,03,30,06,25,5.00
2013,03,30,06,26,5.00
2013,03,30,06,27,5.00
2013,03,30,06,28,5.10
2013,03,30,06,29,5.10
2013,03,30,06,30,5.10
2013,03,30,06,31,5.20
2013,03,30,06,32,5.20
2013,03,30,06,33,5.20
2013,03,30,06,34,5.20
2013,03,30,06,35,5.20
2013,03,30,06,36,5.10
2013,03,30,06,37,5.10
2013,03,30,06,38,5.10
2013,03,30,06,39,5.10
2013,03,30,06,40,5.10
2013,03,30,06,41,5.10
2013,03,30,06,42,5.10
2013,03,30,06,43,5.10
2013,03,30,06,44,5.10
2013,03,30,06,45,5.10
2013,03,30,06,46,5.00
2013,03,30,06,47,5.00
2013,03,30,06,48,4.90
2013,03,30,06,49,4.90
2013,03,30,06,50,4.80
2013,03,30,06,51,4.70
2013,03,30,06,52,4.70
2013,03,30,06,53,4.60
2013,03,30,06,54,4.60
2013,03,30,06,55,4.60
2013,03,30,06,56,4.60
2013,03,30,06,57,4.50
2013,03,30,06,58,4.50
2013,03,30,06,59,4.50
2013,03,30,07,00,4.50
2013,03,30,07,01,4.50
2013,03,30,07,02,4.60
2013,03,30,07,03,4.60
2013,03,30,07,04,4.60
2013,03,30,07,05,4.50
2013,03,30,07,06,4.50
2013,03,30,07,07,4.50
2013,03,30,07,08,4.40
2013,03,30,07,09,4.40
2013,03,30,07,10,4.30
2013,03,30,07,11,4.30
2013,03,30,07,12,4.30
2013,03,30,07,13,4.30
2013,03,30,07,14,4.30
2013,03,30,07,15,4.30
2013,03,30,07,16,4.30
2013,03,30,07,17,4.40
2013,03,30,07,18,4.40
2013,03,30,07,19,4.40
2013,03,30,07,20,4.40
2013,03,30,07,21,4.40
2013,03,30,07,22,4.50
2013,03,30,07,23,4.50
2013,03,30,07,24,4.60
2013,03,30,07,25,4.60
2013,03,30,07,26,4.70
2013,03,30,07,27,4.70
2013,03,30,07,28,4.70
2013,03,30,07,29,4.70
2013,03,30,07,30,4.70
2013,03,30,07,31,4.70
2013,03,30,07,32,4.70
2013,03,30,07,33,4.70
2013,03,30,07,34,4.70
2013,03,30,07,35,4.70
2013,03,30,07,36,4.70
2013,03,30,07,37,4.70
2013,03,30,07,38,4.70
2013,03,30,07,39,4.70
2013,03,30,07,40,4.70
2013,03,30,07,41,4.70
2013,03,30,07,42,4.70
2013,03,30,07,43,4.70
2013,03,30,07,44,4.70
2013,03,30,07,45,4.70
2013,03,30,07,46,4.70
2013,03,30,07,47,4.70
2013,03,30,07,48,4.70
2013,03,30,07,49,4.70
2013,03,30,07,50,4.70
2013,03,30,07,51,4.80
2013,03,30,07,52,4.80
2013,03,30,07,53,4.80
2013,03,30,07,54,4.90
2013,03,30,07,55,4.90
2013,03,30,07,56,5.00
2013,03,30,07,57,5.00
2013,03,30,07,58,5.10
2013,03,30,07,59,5.10
2013,03,30,08,00,5.20
2013,03,30,08,01,5.20
2013,03,30,08,02,5.30
2013,03,30,08,03,5.40
2013,03,30,08,04,5.40
2013,03,30,08,05,5.50
2013,03,30,08,06,5.50
2013,03,30,08,07,5.60
2013,03,30,08,08,5.60
2013,03,30,08,09,5.70
2013,03,30,08,10,5.80
2013,03,30,08,11,5.80
2013,03,30,08,12,5.80
2013,03,30,08,13,5.80
2013,03,30,08,14,5.90
2013,03,30,08,15,5.90
2013,03,30,08,16,6.00
2013,03,30,08,17,6.10
2013,03,30,08,18,6.20
2013,03,30,08,19,6.30
2013,03,30,08,20,6.40
2013,03,30,08,21,6.40
2013,03,30,08,22,6.50
2013,03,30,08,23,6.50
2013,03,30,08,24,6.60
2013,03,30,08,25,6.60
2013,03,30,08,26,6.60
2013,03,30,08,27,6.70
2013,03,30,08,28,6.70
2013,03,30,08,29,6.80
2013,03,30,08,30,6.80
2013,03,30,08,31,6.90
2013,03,30,08,32,6.90
2013,03,30,08,33,7.00
2013,03,30,08,34,7.00
2013,03,30,08,35,7.10
2013,03,30,08,36,7.20
2013,03,30,08,37,7.20
2013,03,30,08,38,7.20
2013,03,30,08,39,7.30
2013,03,30,08,40,7.40
2013,03,30,08,41,7.40
2013,03,30,08,42,7.50
2013,03,30,08,43,7.50
2013,03,30,08,44,7.60
2013,03,30,08,45,7.60
2013,03,30,08,46,7.70
2013,03,30,08,47,7.70
2013,03,30,08,48,7.80
2013,03,30,08,49,7.90
2013,03,30,08,50,8.00
2013,03,30,08,51,8.00
2013,03,30,08,52,8.10
2013,03,30,08,53,8.10
2013,03,30,08,54,8.20
2013,03,30,08,55,8.20
2013,03,30,08,56,8.30
2013,03,30,08,57,8.30
2013,03,30,08,58,8.40
2013,03,30,08,59,8.50
2013,03,30,09,00,8.60
2013,03,30,09,01,8.60
2013,03,30,09,02,8.70
2013,03,30,09,03,8.80
2013,03,30,09,04,8.80
2013,03,30,09,05,8.90
2013,03,30,09,06,8.90
2013,03,30,09,07,9.00
2013,03,30,09,08,9.00
2013,03,30,09,09,9.10
2013,03,30,09,10,9.10
2013,03,30,09,11,9.20
2013,03,30,09,12,9.20
2013,03,30,09,13,9.30
2013,03,30,09,14,9.30
2013,03,30,09,15,9.40
2013,03,30,09,16,9.50
2013,03,30,09,17,9.50
2013,03,30,09,18,9.60
2013,03,30,09,19,9.60
2013,03,30,09,20,9.60
2013,03,30,09,21,9.70
2013,03,30,09,22,9.70
2013,03,30,09,23,9.80
2013,03,30,09,24,9.80
2013,03,30,09,25,9.80
2013,03,30,09,26,9.80
2013,03,30,09,27,9.90
2013,03,30,09,28,9.90
2013,03,30,09,29,9.90
2013,03,30,09,30,10.00
2013,03,30,09,31,10.00
2013,03,30,09,32,10.00
2013,03,30,09,33,10.10
2013,03,30,09,34,10.10
2013,03,30,09,35,10.10
2013,03,30,09,36,10.20
2013,03,30,09,37,10.20
2013,03,30,09,38,10.20
2013,03,30,09,39,10.30
2013,03,30,09,40,10.30
2013,03,30,09,41,10.30
2013,03,30,09,42,10.30
2013,03,30,09,43,10.40
2013,03,30,09,44,10.40
2013,03,30,09,45,10.40
2013,03,30,09,46,10.50
2013,03,30,09,47,10.50
2013,03,30,09,48,10.60
2013,03,30,09,49,10.60
2013,03,30,09,50,10.60
2013,03,30,09,51,10.70
2013,03,30,09,52,10.70
2013,03,30,09,53,10.80
2013,03,30,09,54,10.80
2013,03,30,09,55,10.80
2013,03,30,09,56,10.90
2013,03,30,09,57,10.90
2013,03,30,09,58,10.90
2013,03,30,09,59,10.90
2013,03,30,10,00,11.00
2013,03,30,10,01,11.00
2013,03,30,10,02,11.10
2013,03,30,10,03,11.10
2013,03,30,10,04,11.20
2013,03,30,10,05,11.20
2013,03,30,10,06,11.30
2013,03,30,10,07,11.30
2013,03,30,10,08,11.40
2013,03,30,10,09,11.50
2013,03,30,10,10,11.50
2013,03,30,10,11,11.60
2013,03,30,10,12,11.70
2013,03,30,10,13,11.70
2013,03,30,10,14,11.80
2013,03,30,10,15,11.90
2013,03,30,10,16,12.10
2013,03,30,10,17,12.20
2013,03,30,10,18,12.30
2013,03,30,10,19,12.20
2013,03,30,10,20,12.20
2013,03,30,10,21,12.20
2013,03,30,10,22,12.20
2013,03,30,10,23,12.30
2013,03,30,10,24,12.30
2013,03,30,10,25,12.30
2013,03,30,10,26,12.30
2013,03,30,10,27,12.30
2013,03,30,10,28,12.30
2013,03,30,10,29,12.30
2013,03,30,10,30,12.30
2013,03,30,10,31,12.40
2013,03,30,10,32,12.40
2013,03,30,10,33,12.40
2013,03,30,10,34,12.40
2013,03,30,10,35,12.40
2013,03,30,10,36,12.40
2013,03,30,10,37,12.40
2013,03,30,10,38,12.40
2013,03,30,10,39,12.40
2013,03,30,10,40,12.40
2013,03,30,10,41,12.50
2013,03,30,10,42,12.50
2013,03,30,10,43,12.60
2013,03,30,10,44,12.70
2013,03,30,10,45,12.70
2013,03,30,10,46,12.70
2013,03,30,10,47,12.80
2013,03,30,10,48,12.90
2013,03,30,10,49,12.90
2013,03,30,10,50,13.00
2013,03,30,10,51,13.10
2013,03,30,10,52,13.20
2013,03,30,10,53,13.30
2013,03,30,10,54,13.30
2013,03,30,10,55,13.30
2013,03,30,10,56,13.30
2013,03,30,10,57,13.30
2013,03,30,10,58,13.40
2013,03,30,10,59,13.40
2013,03,30,11,00,13.40
2013,03,30,11,01,13.40
2013,03,30,11,02,13.40
2013,03,30,11,03,13.40
2013,03,30,11,04,13.50
2013,03,30,11,05,13.50
2013,03,30,11,06,13.60
2013,03,30,11,07,13.60
2013,03,30,11,08,13.60
2013,03,30,11,09,13.60
2013,03,30,11,10,13.60
2013,03,30,11,11,13.60
2013,03,30,11,12,13.60
2013,03,30,11,13,13.60
2013,03,30,11,14,13.70
2013,03,30,11,15,13.70
2013,03,30,11,16,13.70
2013,03,30,11,17,13.70
2013,03,30,11,18,13.70
2013,03,30,11,19,13.70
2013,03,30,11,20,13.70
2013,03,30,11,21,13.80
2013,03,30,11,22,13.80
2013,03,30,11,23,13.70
2013,03,30,11,24,13.70
2013,03,30,11,25,13.70
2013,03,30,11,26,13.70
2013,03,30,11,27,13.70
2013,03,30,11,28,13.70
2013,03,30,11,29,13.70
2013,03,30,11,30,13.70
2013,03,30,11,31,13.70
2013,03,30,11,32,13.70
2013,03,30,11,33,13.80
2013,03,30,11,34,13.80
2013,03,30,11,35,13.80
2013,03,30,11,36,13.80
2013,03,30,11,37,13.80
2013,03,30,11,38,13.80
2013,03,30,11,39,13.80
2013,03,30,11,40,13.80
2013,03,30,11,41,13.80
2013,03,30,11,42,13.90
2013,03,30,11,43,13.90
2013,03,30,11,44,14.00
2013,03,30,11,45,14.10
2013,03,30,11,46,14.20
2013,03,30,11,47,14.20
2013,03,30,11,48,14.30
2013,03,30,11,49,14.40
2013,03,30,11,50,14.40
2013,03,30,11,51,14.30
2013,03,30,11,52,14.30
2013,03,30,11,53,14.30
2013,03,30,11,54,14.30
2013,03,30,11,55,14.40
2013,03,30,11,56,14.40
2013,03,30,11,57,14.40
2013,03,30,11,58,14.40
2013,03,30,11,59,14.40
2013,03,30,12,00,14.50
2013,03,30,12,01,14.50
2013,03,30,12,02,14.50
2013,03,30,12,03,14.40
2013,03,30,12,04,14.40
2013,03,30,12,05,14.40
2013,03,30,12,06,14.40
2013,03,30,12,07,14.40
2013,03,30,12,08,14.40
2013,03,30,12,09,14.50
2013,03,30,12,10,14.60
2013,03,30,12,11,14.60
2013,03,30,12,12,14.70
2013,03,30,12,13,14.70
2013,03,30,12,14,14.80
2013,03,30,12,15,14.80
2013,03,30,12,16,14.80
2013,03,30,12,17,14.90
2013,03,30,12,18,14.90
2013,03,30,12,19,14.80
2013,03,30,12,20,14.70
2013,03,30,12,21,14.70
2013,03,30,12,22,14.80
2013,03,30,12,23,14.80
2013,03,30,12,24,15.00
2013,03,30,12,25,15.00
2013,03,30,12,26,15.00
2013,03,30,12,27,15.20
2013,03,30,12,28,15.30
2013,03,30,12,29,15.40
2013,03,30,12,30,15.50
2013,03,30,12,31,15.50
2013,03,30,12,32,15.60
2013,03,30,12,33,15.60
2013,03,30,12,34,15.60
2013,03,30,12,35,15.60
2013,03,30,12,36,15.60
2013,03,30,12,37,15.50
2013,03,30,12,38,15.50
2013,03,30,12,39,15.40
2013,03,30,12,40,15.30
2013,03,30,12,41,15.30
2013,03,30,12,42,15.30
2013,03,30,12,43,15.30
2013,03,30,12,44,15.40
2013,03,30,12,45,15.40
2013,03,30,12,46,15.50
2013,03,30,12,47,15.50
2013,03,30,12,48,15.40
2013,03,30,12,49,15.30
2013,03,30,12,50,15.10
2013,03,30,12,51,15.00
2013,03,30,12,52,15.00
2013,03,30,12,53,15.00
2013,03,30,12,54,15.00
2013,03,30,12,55,15.00
2013,03,30,12,56,15.00
2013,03,30,12,57,15.10
2013,03,30,12,58,15.20
2013,03,30,12,59,15.20
2013,03,30,13,00,15.30
2013,03,30,13,01,15.40
2013,03,30,13,02,15.50
2013,03,30,13,03,15.50
2013,03,30,13,04,15.60
2013,03,30,13,05,15.60
2013,03,30,13,06,15.60
2013,03,30,13,07,15.60
2013,03,30,13,08,15.60
2013,03,30,13,09,15.50
2013,03,30,13,10,15.40
2013,03,30,13,11,15.40
2013,03,30,13,12,15.40
2013,03,30,13,13,15.30
2013,03,30,13,14,15.30
2013,03,30,13,15,15.30
2013,03,30,13,16,15.30
2013,03,30,13,17,15.30
2013,03,30,13,18,15.30
2013,03,30,13,19,15.40
2013,03,30,13,20,15.50
2013,03,30,13,21,15.60
2013,03,30,13,22,15.60
2013,03,30,13,23,15.60
2013,03,30,13,24,15.50
2013,03,30,13,25,15.40
2013,03,30,13,26,15.40
2013,03,30,13,27,15.30
2013,03,30,13,28,15.30
2013,03,30,13,29,15.30
2013,03,30,13,30,15.30
2013,03,30,13,31,15.20
2013,03,30,13,32,15.20
2013,03,30,13,33,15.10
2013,03,30,13,34,15.00
2013,03,30,13,35,15.00
2013,03,30,13,36,15.00
2013,03,30,13,37,15.10
2013,03,30,13,38,15.00
2013,03,30,13,39,15.00
2013,03,30,13,40,15.20
2013,03,30,13,41,15.30
2013,03,30,13,42,15.40
2013,03,30,13,43,15.40
2013,03,30,13,44,15.40
2013,03,30,13,45,15.40
2013,03,30,13,46,15.30
2013,03,30,13,47,15.30
2013,03,30,13,48,15.30
2013,03,30,13,49,15.30
2013,03,30,13,50,15.40
2013,03,30,13,51,15.50
2013,03,30,13,52,15.60
2013,03,30,13,53,15.70
2013,03,30,13,54,15.70
2013,03,30,13,55,15.70
2013,03,30,13,56,15.50
2013,03,30,13,57,15.40
2013,03,30,13,58,15.40
2013,03,30,13,59,15.30
2013,03,30,14,00,15.20
2013,03,30,14,01,15.20
2013,03,30,14,02,15.20
2013,03,30,14,03,15.20
2013,03,30,14,04,15.30
2013,03,30,14,05,15.30
2013,03,30,14,06,15.40
2013,03,30,14,07,15.50
2013,03,30,14,08,15.50
2013,03,30,14,09,15.60
2013,03,30,14,10,15.60
2013,03,30,14,11,15.60
2013,03,30,14,12,15.70
2013,03,30,14,13,15.70
2013,03,30,14,14,15.80
2013,03,30,14,15,15.70
2013,03,30,14,16,15.60
2013,03,30,14,17,15.50
2013,03,30,14,18,15.40
2013,03,30,14,19,15.40
2013,03,30,14,20,15.30
2013,03,30,14,21,15.20
2013,03,30,14,22,15.30
2013,03,30,14,23,15.40
2013,03,30,14,24,15.60
2013,03,30,14,25,15.60
2013,03,30,14,26,15.70
2013,03,30,14,27,15.70
2013,03,30,14,28,15.90
2013,03,30,14,29,16.00
2013,03,30,14,30,16.10
2013,03,30,14,31,16.10
2013,03,30,14,32,16.20
2013,03,30,14,33,16.10
2013,03,30,14,34,16.10
2013,03,30,14,35,16.00
2013,03,30,14,36,15.90
2013,03,30,14,37,15.80
2013,03,30,14,38,15.80
2013,03,30,14,39,15.70
2013,03,30,14,40,15.70
2013,03,30,14,41,15.60
2013,03,30,14,42,15.60
2013,03,30,14,43,15.60
2013,03,30,14,44,15.70
2013,03,30,14,45,15.60
2013,03,30,14,46,15.60
2013,03,30,14,47,15.50
2013,03,30,14,48,15.50
2013,03,30,14,49,15.30
2013,03,30,14,50,15.40
2013,03,30,14,51,15.40
2013,03,30,14,52,15.50
2013,03,30,14,53,15.60
2013,03,30,14,54,15.70
2013,03,30,14,55,15.70
2013,03,30,14,56,15.80
2013,03,30,14,57,15.80
2013,03,30,14,58,15.80
2013,03,30,14,59,15.80
2013,03,30,15,00,15.80
2013,03,30,15,01,15.80
2013,03,30,15,02,15.80
2013,03,30,15,03,15.80
2013,03,30,15,04,15.80
2013,03,30,15,05,15.70
2013,03,30,15,06,15.80
2013,03,30,15,07,15.80
2013,03,30,15,08,15.80
2013,03,30,15,09,15.80
2013,03,30,15,10,15.80
2013,03,30,15,11,15.80
2013,03,30,15,12,15.80
2013,03,30,15,13,15.80
2013,03,30,15,14,15.80
2013,03,30,15,15,15.90
2013,03,30,15,16,15.90
2013,03,30,15,17,16.00
2013,03,30,15,18,16.00
2013,03,30,15,19,16.10
2013,03,30,15,20,16.20
2013,03,30,15,21,16.30
2013,03,30,15,22,16.30
2013,03,30,15,23,16.40
2013,03,30,15,24,16.40
2013,03,30,15,25,16.50
2013,03,30,15,26,16.50
2013,03,30,15,27,16.50
2013,03,30,15,28,16.40
2013,03,30,15,29,16.40
2013,03,30,15,30,16.40
2013,03,30,15,31,16.50
2013,03,30,15,32,16.50
2013,03,30,15,33,16.50
2013,03,30,15,34,16.60
2013,03,30,15,35,16.60
2013,03,30,15,36,16.60
2013,03,30,15,37,16.60
2013,03,30,15,38,16.70
2013,03,30,15,39,16.70
2013,03,30,15,40,16.80
2013,03,30,15,41,16.90
2013,03,30,15,42,17.00
2013,03,30,15,43,17.10
2013,03,30,15,44,17.20
2013,03,30,15,45,17.30
2013,03,30,15,46,17.30
2013,03,30,15,47,17.40
2013,03,30,15,48,17.50
2013,03,30,15,49,17.50
2013,03,30,15,50,17.50
2013,03,30,15,51,17.50
2013,03,30,15,52,17.60
2013,03,30,15,53,17.70
2013,03,30,15,54,17.80
2013,03,30,15,55,17.90
2013,03,30,15,56,18.00
2013,03,30,15,57,18.10
2013,03,30,15,58,18.10
2013,03,30,15,59,18.10
2013,03,30,16,00,18.00
2013,03,30,16,01,17.90
2013,03,30,16,02,17.80
2013,03,30,16,03,17.80
2013,03,30,16,04,17.80
2013,03,30,16,05,17.80
2013,03,30,16,06,17.80
2013,03,30,16,07,17.80
2013,03,30,16,08,17.90
2013,03,30,16,09,17.90
2013,03,30,16,10,17.90
2013,03,30,16,11,18.00
2013,03,30,16,12,18.10
2013,03,30,16,13,18.20
2013,03,30,16,14,18.30
2013,03,30,16,15,18.30
2013,03,30,16,16,18.40
2013,03,30,16,17,18.40
2013,03,30,16,18,18.40
2013,03,30,16,19,18.50
2013,03,30,16,20,18.50
2013,03,30,16,21,18.50
2013,03,30,16,22,18.40
2013,03,30,16,23,18.30
2013,03,30,16,24,18.20
2013,03,30,16,25,18.20
2013,03,30,16,26,18.00
2013,03,30,16,27,18.00
2013,03,30,16,28,18.00
2013,03,30,16,29,18.10
2013,03,30,16,30,18.10
2013,03,30,16,31,18.10
2013,03,30,16,32,18.10
2013,03,30,16,33,18.10
2013,03,30,16,34,18.20
2013,03,30,16,35,18.20
2013,03,30,16,36,18.30
2013,03,30,16,37,18.30
2013,03,30,16,38,18.30
2013,03,30,16,39,18.20
2013,03,30,16,40,18.00
2013,03,30,16,41,17.90
2013,03,30,16,42,17.80
2013,03,30,16,43,17.70
2013,03,30,16,44,17.50
2013,03,30,16,45,17.40
2013,03,30,16,46,17.30
2013,03,30,16,47,17.30
2013,03,30,16,48,17.40
2013,03,30,16,49,17.40
2013,03,30,16,50,17.50
2013,03,30,16,51,17.50
2013,03,30,16,52,17.60
2013,03,30,16,53,17.70
2013,03,30,16,54,17.70
2013,03,30,16,55,17.80
2013,03,30,16,56,17.70
2013,03,30,16,57,17.60
2013,03,30,16,58,17.50
2013,03,30,16,59,17.40
2013,03,30,17,00,17.30
2013,03,30,17,01,17.30
2013,03,30,17,02,17.30
2013,03,30,17,03,17.40
2013,03,30,17,04,17.50
2013,03,30,17,05,17.50
2013,03,30,17,06,17.60
2013,03,30,17,07,17.60
2013,03,30,17,08,17.60
2013,03,30,17,09,17.70
2013,03,30,17,10,17.70
2013,03,30,17,11,17.70
2013,03,30,17,12,17.70
2013,03,30,17,13,17.70
2013,03,30,17,14,17.70
2013,03,30,17,15,17.70
2013,03,30,17,16,17.60
2013,03,30,17,17,17.60
2013,03,30,17,18,17.70
2013,03,30,17,19,17.70
2013,03,30,17,20,17.80
2013,03,30,17,21,17.80
2013,03,30,17,22,17.70
2013,03,30,17,23,17.70
2013,03,30,17,24,17.70
2013,03,30,17,25,17.70
2013,03,30,17,26,17.70
2013,03,30,17,27,17.60
2013,03,30,17,28,17.60
2013,03,30,17,29,17.60
2013,03,30,17,30,17.70
2013,03,30,17,31,17.70
2013,03,30,17,32,17.80
2013,03,30,17,33,17.80
2013,03,30,17,34,17.80
2013,03,30,17,35,17.90
2013,03,30,17,36,17.90
2013,03,30,17,37,18.00
2013,03,30,17,38,18.00
2013,03,30,17,39,18.10
2013,03,30,17,40,18.10
2013,03,30,17,41,18.20
2013,03,30,17,42,18.20
2013,03,30,17,43,18.10
2013,03,30,17,44,18.10